GW1213 Weather Reports


time (UTC)temp
F
wind
direction
speed
knots
gust
knots
rain 1hr
in
rain 24hr
in
rain mn
in
humidity
%
barometer
mb
20260510054544 56 0 0.0 0.0 0.00 0.00 0.00 91 1010.0
20260510054039 56 0 0.0 0.0 0.00 0.00 0.00 91 1009.9
20260510053538 56 0 0.0 0.0 0.00 0.00 0.00 91 1009.9
20260510053053 56 0 0.0 0.0 0.00 0.00 0.00 91 1009.9
20260510052538 56 0 0.0 0.0 0.00 0.00 0.00 91 1009.9
20260510052042 56 0 0.0 0.0 0.00 0.00 0.00 91 1009.8
20260510051550 56 0 0.0 0.0 0.00 0.00 0.00 90 1009.8
20260510051041 56 0 0.0 0.0 0.00 0.00 0.00 90 1009.8
20260510050537 57 0 0.0 0.0 0.00 0.00 0.00 90 1009.8
20260510050049 57 0 0.0 0.0 0.00 0.00 0.00 90 1009.8
20260510045535 57 0 0.0 0.0 0.00 0.00 0.00 90 1009.8
20260510045037 57 0 0.0 0.0 0.00 0.00 0.00 90 1009.9
20260510044551 57 0 0.0 0.0 0.00 0.00 0.00 90 1009.8
20260510044036 57 0 0.0 0.0 0.00 0.00 0.00 89 1009.8
20260510043534 57 0 0.0 0.0 0.00 0.00 0.00 88 1009.7
20260510043107 57 0 0.0 0.0 0.00 0.00 0.00 88 1009.7
20260510042537 57 0 0.0 0.0 0.00 0.00 0.00 88 1009.7
20260510042035 57 0 0.0 0.0 0.00 0.00 0.00 88 1009.7
20260510041556 57 0 0.0 0.0 0.00 0.00 0.00 89 1009.7
20260510041035 58 0 0.0 0.0 0.00 0.00 0.00 89 1009.7
20260510040536 58 0 0.0 0.0 0.00 0.00 0.00 89 1009.6
20260510040059 58 0 0.0 0.0 0.00 0.00 0.00 89 1009.6
20260510035535 58 0 0.0 0.0 0.00 0.00 0.00 88 1009.6
20260510035035 58 0 0.0 0.0 0.00 0.00 0.00 87 1009.5
20260510034549 58 0 0.0 0.0 0.00 0.00 0.00 87 1009.5
20260510034035 58 0 0.0 0.0 0.00 0.00 0.00 86 1009.6
20260510033534 58 0 0.0 0.0 0.00 0.00 0.00 86 1009.4
20260510033049 58 0 0.0 0.0 0.00 0.00 0.00 86 1009.4
20260510032536 58 0 0.0 0.0 0.00 0.00 0.00 86 1009.4
20260510032036 58 0 0.0 0.0 0.00 0.00 0.00 86 1009.4
20260510031554 58 0 0.0 0.0 0.00 0.00 0.00 86 1009.3
20260510031034 59 0 0.0 0.0 0.00 0.00 0.00 85 1009.3
20260510030535 59 0 0.0 0.0 0.00 0.00 0.00 85 1009.2
20260510030052 59 0 0.0 0.0 0.00 0.00 0.00 84 1009.2
20260510025536 59 0 0.0 0.0 0.00 0.00 0.00 84 1009.2
20260510025035 59 0 0.0 0.0 0.00 0.00 0.00 84 1009.1
20260510024544 60 0 0.0 0.0 0.00 0.00 0.00 84 1009.1
20260510024035 60 0 0.0 0.0 0.00 0.00 0.00 84 1009.0
20260510023537 60 0 0.0 0.0 0.00 0.00 0.00 83 1009.0
20260510023049 60 0 0.0 0.0 0.00 0.00 0.00 82 1008.9
20260510022535 61 0 0.0 0.0 0.00 0.00 0.00 82 1008.9
20260510022034 61 0 0.0 0.0 0.00 0.00 0.00 81 1008.9
20260510021549 61 0 0.0 0.0 0.00 0.00 0.00 81 1008.8
20260510021034 61 0 0.0 0.0 0.00 0.00 0.00 81 1008.8
20260510020537 62 0 0.0 0.0 0.00 0.00 0.00 81 1008.7
20260510020047 62 0 0.0 0.0 0.00 0.00 0.00 79 1008.7
20260510015535 62 0 0.0 0.0 0.00 0.00 0.00 76 1008.7
20260510015036 62 0 0.0 0.0 0.00 0.00 0.00 76 1008.6
20260510014547 63 0 0.0 0.0 0.00 0.00 0.00 76 1008.5
20260510014035 63 0 0.0 0.0 0.00 0.00 0.00 74 1008.3
20260510013535 63 0 0.0 0.0 0.00 0.00 0.00 75 1008.3
20260510013045 64 0 0.0 0.0 0.00 0.00 0.00 75 1008.3
20260510012535 64 0 0.0 0.0 0.00 0.00 0.00 74 1008.2
20260510012036 64 0 0.0 0.0 0.00 0.00 0.00 73 1008.1
20260510011554 65 0 0.0 0.0 0.00 0.00 0.00 73 1008.0
20260510011033 65 0 0.0 0.0 0.00 0.00 0.00 72 1008.0
20260510010534 66 0 0.0 0.0 0.00 0.00 0.00 71 1008.1
20260510010049 67 0 0.0 0.0 0.00 0.00 0.00 69 1008.0
20260510005535 67 0 0.0 0.0 0.00 0.00 0.00 66 1008.0
20260510005034 68 0 0.0 0.0 0.00 0.00 0.00 64 1007.9
20260510004550 68 0 0.0 0.0 0.00 0.00 0.00 62 1007.8
20260510004034 69 0 0.0 0.0 0.00 0.00 0.00 62 1007.7
20260510003536 69 0 0.0 0.0 0.00 0.00 0.00 62 1007.6
20260510003049 70 0 0.0 0.0 0.00 0.00 0.00 63 1007.6
20260510002533 71 0 0.0 0.0 0.00 0.00 0.00 59 1007.6
20260510002036 72 0 0.0 0.0 0.00 0.00 0.00 57 1007.5
20260510001551 72 0 0.0 0.0 0.00 0.00 0.00 55 1007.6
20260510001035 73 0 0.0 2.6 0.00 0.00 0.00 54 1007.5
20260510000535 73 0 0.0 3.5 0.00 0.00 0.00 52 1007.6
20260510000051 73 136 0.0 3.5 0.00 0.00 0.00 50 1007.4
20260509235535 74 0 0.0 1.7 0.00 0.00 0.00 50 1007.3
20260509235035 74 0 0.0 4.3 0.00 0.00 0.00 49 1007.3
20260509234547 74 170 0.0 5.2 0.00 0.00 0.00 48 1007.3
20260509234035 74 0 0.0 5.2 0.00 0.00 0.00 48 1007.3
20260509233535 75 0 0.9 5.2 0.00 0.00 0.00 48 1007.2
20260509233053 75 181 0.9 4.3 0.00 0.00 0.00 47 1007.2
20260509232535 75 0 0.9 4.3 0.00 0.00 0.00 47 1007.1
20260509232035 75 163 0.0 4.3 0.00 0.00 0.00 47 1007.2
20260509231550 76 144 0.9 3.5 0.00 0.00 0.00 46 1007.2
20260509231034 76 0 0.9 3.5 0.00 0.00 0.00 46 1007.2
20260509230537 76 0 0.9 6.1 0.00 0.00 0.00 46 1007.2
20260509230048 76 204 0.9 6.1 0.00 0.00 0.00 46 1007.2
20260509225535 76 238 0.9 6.1 0.00 0.00 0.00 46 1007.2
20260509225037 76 0 0.9 6.1 0.00 0.00 0.00 46 1007.1
20260509224557 76 184 0.9 6.1 0.00 0.00 0.00 45 1007.0
20260509224034 76 155 1.7 6.1 0.00 0.00 0.00 45 1007.0
20260509223535 77 241 1.7 4.3 0.00 0.00 0.00 45 1007.0
20260509223059 77 251 0.9 7.0 0.00 0.00 0.00 45 1007.1
20260509222538 76 0 0.9 7.0 0.00 0.00 0.00 45 1007.1
20260509222036 76 234 1.7 6.1 0.00 0.00 0.00 45 1007.2
20260509221602 76 213 0.9 6.1 0.00 0.00 0.00 45 1007.2
20260509221034 76 273 0.9 7.0 0.00 0.00 0.00 45 1007.2
20260509220534 76 244 1.7 7.0 0.00 0.00 0.00 45 1007.2
20260509220053 76 236 1.7 7.0 0.00 0.00 0.00 44 1007.1
20260509215534 76 137 2.6 7.8 0.00 0.00 0.00 44 1007.1
20260509215035 76 248 2.6 7.8 0.00 0.00 0.00 45 1007.2
20260509214554 76 235 0.9 7.8 0.00 0.00 0.00 46 1007.1
20260509214037 76 270 0.9 7.8 0.00 0.00 0.00 46 1007.2
20260509213535 76 167 3.5 7.8 0.00 0.00 0.00 45 1007.2
20260509213054 76 219 1.7 7.0 0.00 0.00 0.00 45 1007.2
20260509212534 76 264 2.6 10.4 0.00 0.00 0.00 45 1007.2
20260509212034 77 196 2.6 10.4 0.00 0.00 0.00 44 1007.1
20260509211547 77 201 2.6 8.7 0.00 0.00 0.00 44 1007.1
20260509211036 78 211 0.9 7.8 0.00 0.00 0.00 45 1007.0
20260509210537 78 242 1.7 7.8 0.00 0.00 0.00 43 1007.0
20260509205535 78 196 0.9 8.7 0.00 0.00 0.00 45 1007.0
20260509205035 78 63 1.7 8.7 0.00 0.00 0.00 46 1006.8
20260509204557 78 180 3.5 7.0 0.00 0.00 0.00 44 1006.9
20260509204035 79 221 0.9 6.1 0.00 0.00 0.00 44 1006.9
20260509203539 78 224 0.9 7.0 0.00 0.00 0.00 45 1006.9
20260509203056 78 248 1.7 8.7 0.00 0.00 0.00 45 1006.9
20260509202536 77 275 2.6 8.7 0.00 0.00 0.00 46 1006.9
20260509202035 77 234 1.7 7.0 0.00 0.00 0.00 48 1006.9
20260509201556 76 292 0.9 8.7 0.00 0.00 0.00 49 1007.0
20260509201035 76 155 1.7 9.6 0.00 0.00 0.00 49 1007.1
20260509200534 76 146 1.7 9.6 0.00 0.00 0.00 49 1007.2
20260509200059 76 241 2.6 7.8 0.00 0.00 0.00 48 1007.3
20260509195536 76 182 0.9 7.0 0.00 0.00 0.00 49 1007.4
20260509195034 76 269 2.6 7.0 0.00 0.00 0.00 47 1007.4
20260509194552 77 268 0.9 7.0 0.00 0.00 0.00 48 1007.4
20260509194037 76 0 0.9 7.0 0.00 0.00 0.00 49 1007.4
20260509193536 76 0 0.0 6.1 0.00 0.00 0.00 51 1007.7
20260509193047 75 242 1.7 7.8 0.00 0.00 0.00 52 1007.7
20260509192535 74 260 2.6 7.8 0.00 0.00 0.00 52 1007.9
20260509192035 74 276 0.9 6.1 0.00 0.00 0.00 55 1008.0
20260509191550 73 242 1.7 6.1 0.00 0.00 0.00 55 1008.1
20260509191037 73 246 0.0 5.2 0.00 0.00 0.00 54 1008.2
20260509190534 73 171 1.7 5.2 0.00 0.00 0.00 54 1008.2
20260509185535 74 279 1.7 6.1 0.00 0.00 0.00 53 1008.4
20260509185035 74 0 0.0 7.8 0.00 0.00 0.00 55 1008.4
20260509184545 74 271 1.7 7.8 0.00 0.00 0.00 54 1008.5
20260509184036 73 246 1.7 7.0 0.00 0.00 0.00 56 1008.5
20260509183536 72 263 0.9 7.8 0.00 0.00 0.00 56 1008.6
20260509183053 72 260 2.6 7.8 0.00 0.00 0.00 55 1008.8
20260509182534 73 242 1.7 7.8 0.00 0.00 0.00 55 1008.8
20260509182034 73 270 2.6 7.0 0.00 0.00 0.00 54 1008.8
20260509181559 73 132 1.7 5.2 0.00 0.00 0.00 54 1008.9
20260509181035 73 218 0.9 5.2 0.00 0.00 0.00 54 1008.9
20260509180535 73 248 1.7 5.2 0.00 0.00 0.00 54 1008.9
20260509180059 73 260 1.7 5.2 0.00 0.00 0.00 54 1009.1
20260509175535 73 182 0.0 8.7 0.00 0.00 0.00 54 1009.0
20260509175035 73 257 0.0 8.7 0.00 0.00 0.00 54 1009.1
20260509174549 72 230 1.7 7.0 0.00 0.00 0.00 54 1009.2
20260509174034 72 157 1.7 7.0 0.00 0.00 0.00 55 1009.1
20260509173535 72 265 1.7 8.7 0.00 0.00 0.00 55 1009.2
20260509173049 72 5 0.9 8.7 0.00 0.00 0.00 55 1009.2
20260509172536 72 217 1.7 8.7 0.00 0.00 0.00 54 1009.3
20260509172035 72 279 3.5 8.7 0.00 0.00 0.00 56 1009.4
20260509171548 72 257 3.5 10.4 0.00 0.00 0.00 56 1009.4
20260509171035 71 127 3.5 10.4 0.00 0.00 0.00 57 1009.5
20260509170534 70 213 1.7 6.1 0.00 0.00 0.00 58 1009.6
20260509170047 70 242 0.0 8.7 0.00 0.00 0.00 58 1009.5
20260509165534 70 237 2.6 9.6 0.00 0.00 0.00 57 1009.6
20260509165038 70 213 1.7 10.4 0.00 0.00 0.00 57 1009.7
20260509164550 70 247 5.2 10.4 0.00 0.00 0.00 56 1009.6
20260509164035 70 232 1.7 7.8 0.00 0.00 0.00 56 1009.7
20260509163537 70 249 2.6 8.7 0.00 0.00 0.00 55 1009.6
20260509163053 70 275 3.5 8.7 0.00 0.00 0.00 55 1009.6
20260509162534 70 230 2.6 7.8 0.00 0.00 0.00 55 1009.6
20260509162035 70 253 3.5 10.4 0.00 0.00 0.00 55 1009.7
20260509161557 71 184 3.5 10.4 0.00 0.00 0.00 54 1009.7
20260509161034 71 229 3.5 10.4 0.00 0.00 0.00 54 1009.6
20260509160535 71 242 1.7 13.0 0.00 0.00 0.00 54 1009.7
20260509160051 71 282 3.5 13.0 0.00 0.00 0.00 53 1009.7
20260509155535 71 246 3.5 13.0 0.00 0.00 0.00 53 1009.8
20260509155034 71 339 2.6 10.4 0.00 0.00 0.00 54 1009.7
20260509154553 71 254 2.6 9.6 0.00 0.00 0.00 54 1009.9
20260509154034 71 211 3.5 9.6 0.00 0.00 0.00 55 1009.8
20260509153537 71 205 2.6 9.6 0.00 0.00 0.00 54 1009.8
20260509153053 71 141 3.5 12.2 0.00 0.00 0.00 53 1010.0
20260509152534 71 94 2.6 12.2 0.00 0.00 0.00 55 1010.0
20260509152037 71 201 3.5 9.6 0.00 0.00 0.00 55 1010.1
20260509151550 70 139 3.5 7.0 0.00 0.00 0.00 56 1010.1
20260509151036 70 217 2.6 8.7 0.00 0.00 0.00 57 1009.9
20260509150539 69 39 2.6 9.6 0.00 0.00 0.00 57 1009.9
20260509150052 69 167 1.7 9.6 0.00 0.00 0.00 57 1009.9
20260509145534 69 239 3.5 9.6 0.00 0.00 0.00 58 1010.1
20260509145034 68 109 1.7 7.8 0.00 0.00 0.00 60 1010.2
20260509144547 68 155 2.6 12.2 0.00 0.00 0.00 59 1010.3
20260509144034 67 285 1.7 12.2 0.00 0.00 0.00 59 1010.4
20260509143535 67 196 3.5 9.6 0.00 0.00 0.00 58 1010.5
20260509143047 67 132 2.6 9.6 0.00 0.00 0.00 60 1010.7
20260509142535 66 153 2.6 8.7 0.00 0.00 0.00 59 1010.7
20260509142034 66 246 1.7 7.8 0.00 0.00 0.00 60 1010.7
20260509141556 66 144 0.9 7.8 0.00 0.00 0.00 62 1010.6
20260509141039 65 313 1.7 7.0 0.00 0.00 0.00 62 1010.7
20260509140534 65 106 2.6 7.0 0.00 0.00 0.00 62 1010.8
20260509140100 65 167 0.9 7.8 0.00 0.00 0.00 63 1010.8
20260509135534 64 344 2.6 7.8 0.00 0.00 0.00 63 1010.8
20260509135036 64 227 1.7 7.0 0.00 0.00 0.00 63 1011.0
20260509134623 64 171 1.7 7.0 0.00 0.00 0.00 63 1011.0
20260509134037 63 328 1.7 7.8 0.00 0.00 0.00 64 1011.0
20260509133537 63 193 1.7 7.8 0.00 0.00 0.00 65 1011.0
20260509133050 63 165 2.6 7.0 0.00 0.00 0.00 65 1011.1
20260509132535 63 168 1.7 7.8 0.00 0.00 0.00 66 1011.1
20260509132038 62 0 1.7 7.8 0.00 0.00 0.00 66 1011.1
20260509131552 62 291 0.9 5.2 0.00 0.00 0.00 67 1011.1
20260509131035 61 250 0.9 4.3 0.00 0.00 0.00 68 1011.1
20260509130535 61 159 0.9 6.1 0.00 0.00 0.00 69 1011.2
20260509130047 61 155 1.7 6.1 0.00 0.00 0.00 69 1011.2
20260509125535 60 180 0.0 9.6 0.00 0.00 0.00 70 1011.2
20260509125036 60 206 2.6 9.6 0.00 0.00 0.00 70 1011.2
20260509124547 59 183 0.9 6.1 0.00 0.00 0.00 71 1011.3
20260509124034 59 200 1.7 4.3 0.00 0.00 0.00 71 1011.3
20260509123534 59 0 0.9 6.1 0.00 0.00 0.00 71 1011.3
20260509123044 59 164 1.7 6.1 0.00 0.00 0.00 72 1011.3
20260509122534 58 181 1.7 6.1 0.00 0.00 0.00 72 1011.2
20260509122035 58 178 0.9 5.2 0.00 0.00 0.00 72 1011.2
20260509121552 58 55 0.0 5.2 0.00 0.00 0.00 73 1011.2
20260509121035 58 161 0.9 6.1 0.00 0.00 0.00 73 1011.3
20260509120538 57 0 0.9 6.1 0.00 0.00 0.00 73 1011.2
20260509120049 57 71 1.7 9.6 0.00 0.00 0.00 73 1011.3
20260509115534 57 0 1.7 9.6 0.00 0.00 0.00 74 1011.4
20260509115037 57 0 2.6 9.6 0.00 0.00 0.00 74 1011.4
20260509114554 57 127 0.9 7.8 0.00 0.00 0.00 74 1011.4
20260509114035 57 167 1.7 7.8 0.00 0.00 0.00 74 1011.4
20260509113535 56 222 0.9 5.2 0.00 0.00 0.00 75 1011.3
20260509113051 55 82 1.7 5.2 0.00 0.00 0.00 76 1011.4
20260509112534 55 183 0.0 7.0 0.00 0.00 0.00 76 1011.4
20260509112034 54 112 0.0 7.0 0.00 0.00 0.00 76 1011.4
20260509111551 54 159 0.0 4.3 0.00 0.00 0.00 77 1011.4
20260509111034 53 134 0.0 3.5 0.00 0.00 0.00 77 1011.4
20260509110538 53 0 0.0 2.6 0.00 0.00 0.00 77 1011.3
20260509110050 53 0 0.0 2.6 0.00 0.00 0.00 77 1011.3
20260509105534 53 0 0.9 2.6 0.00 0.00 0.00 77 1011.2
20260509105034 53 71 0.0 0.0 0.00 0.00 0.00 76 1011.1
20260509104546 53 0 0.0 0.0 0.00 0.00 0.00 76 1011.2
20260509104034 53 0 0.0 0.0 0.00 0.00 0.00 75 1011.1
20260509103535 53 0 0.0 1.7 0.00 0.00 0.00 75 1011.2
20260509103101 53 0 0.0 2.6 0.00 0.00 0.00 75 1011.2
20260509102538 53 0 0.0 2.6 0.00 0.00 0.00 75 1011.2
20260509102038 53 75 0.0 2.6 0.00 0.00 0.00 75 1011.3
20260509101553 53 0 0.0 2.6 0.00 0.00 0.00 75 1011.2
20260509101037 53 0 0.9 2.6 0.00 0.00 0.00 74 1011.1
20260509100540 53 0 0.0 4.3 0.00 0.00 0.00 74 1011.1
20260509100046 53 0 0.0 4.3 0.00 0.00 0.00 73 1011.1
20260509095539 54 71 0.0 4.3 0.00 0.00 0.00 72 1011.0
20260509095038 54 105 0.0 3.5 0.00 0.00 0.00 73 1011.1
20260509094551 54 93 0.9 3.5 0.00 0.00 0.00 73 1011.0
20260509094038 54 90 0.0 3.5 0.00 0.00 0.00 71 1011.1
20260509093538 54 0 0.0 0.0 0.00 0.00 0.00 70 1011.1
20260509093049 54 0 0.0 1.7 0.00 0.00 0.00 71 1011.1
20260509092538 54 0 0.0 3.5 0.00 0.00 0.00 71 1011.2
20260509092038 54 67 0.9 3.5 0.00 0.00 0.00 71 1011.1
20260509091551 55 0 0.0 2.6 0.00 0.00 0.00 71 1011.0
20260509091041 55 127 0.0 2.6 0.00 0.00 0.00 70 1011.1
20260509090538 55 0 0.0 0.0 0.00 0.00 0.00 71 1011.1
20260509090050 55 0 0.0 0.0 0.00 0.00 0.00 68 1011.0
20260509085537 55 0 0.0 0.0 0.00 0.00 0.00 68 1011.1
20260509085038 55 0 0.0 0.0 0.00 0.00 0.00 68 1011.1
20260509084550 55 0 0.0 0.0 0.00 0.00 0.00 68 1011.1
20260509084038 55 0 0.0 0.0 0.00 0.00 0.00 67 1011.1
20260509083539 55 0 0.0 0.9 0.00 0.00 0.00 67 1011.1
20260509083048 56 0 0.0 2.6 0.00 0.00 0.00 66 1011.1
20260509082535 56 0 0.0 2.6 0.00 0.00 0.00 66 1011.2
20260509082038 56 208 0.0 0.9 0.00 0.00 0.00 65 1011.3
20260509081549 56 0 0.0 0.0 0.00 0.00 0.00 65 1011.4
20260509081036 56 0 0.0 0.9 0.00 0.00 0.00 65 1011.5
20260509080538 56 0 0.0 2.6 0.00 0.00 0.00 65 1011.5
20260509080047 56 0 0.0 2.6 0.00 0.00 0.00 65 1011.6
20260509075538 56 0 0.0 1.7 0.00 0.00 0.00 64 1011.6
20260509075038 56 0 0.0 2.6 0.00 0.00 0.00 65 1011.6
20260509074558 56 0 0.0 3.5 0.00 0.00 0.00 64 1011.7
20260509074037 56 0 0.0 3.5 0.00 0.00 0.00 63 1011.7
20260509073538 56 0 0.0 4.3 0.00 0.00 0.00 63 1011.7
20260509073047 56 0 0.0 4.3 0.00 0.00 0.00 63 1011.8
20260509072538 56 218 0.9 3.5 0.00 0.00 0.00 63 1011.8
20260509072039 56 0 0.0 4.3 0.00 0.00 0.00 64 1011.8
20260509071555 56 176 0.9 5.2 0.00 0.00 0.00 64 1011.8
20260509071038 55 202 0.9 5.2 0.00 0.00 0.00 64 1011.8
20260509070538 55 142 0.0 4.3 0.00 0.00 0.00 65 1011.9
20260509070053 54 145 0.9 5.2 0.00 0.00 0.00 66 1011.9
20260509065538 54 0 0.0 5.2 0.00 0.00 0.00 68 1011.9
20260509065035 54 0 0.0 0.0 0.00 0.00 0.00 70 1012.0
20260509064559 54 0 0.0 0.9 0.00 0.00 0.00 72 1012.0
20260509064038 54 0 0.0 3.5 0.00 0.00 0.00 69 1012.1
20260509063538 54 0 0.0 4.3 0.00 0.00 0.00 70 1012.0
20260509063049 54 0 0.0 4.3 0.00 0.00 0.00 70 1012.1
20260509062542 54 0 0.0 0.0 0.00 0.00 0.00 70 1012.1
20260509062042 54 0 0.0 0.0 0.00 0.00 0.00 72 1012.1
20260509061553 54 0 0.0 0.0 0.00 0.00 0.00 71 1012.1
20260509061037 54 0 0.0 0.0 0.00 0.00 0.00 70 1012.1
20260509060538 54 0 0.0 0.0 0.00 0.00 0.00 71 1012.1
20260509060049 54 0 0.0 0.0 0.00 0.00 0.00 70 1012.1
20260509055538 54 0 0.0 0.0 0.00 0.00 0.00 69 1012.1
20260509055038 54 0 0.0 0.0 0.00 0.00 0.00 69 1012.0